Charlottesville, VA

10:25 PM EDT on April 28, 2017 (GMT -0400)
Charlottesville-Albemarle

Weather History for KCHO - June, 2013

Change the Weather History Date:

Saturday, June 1, 2013

  Actual Average Record
Temperature  
Mean Temperature 77 °F 68 °F  
Max Temperature 89 °F 79 °F 96 °F (1991)
Min Temperature 65 °F 57 °F 40 °F (1967)
Degree Days  
Heating Degree Days 0 1  
Month to date heating degree days 0 1  
Since 1 June heating degree days 0 1  
Since 1 July heating degree days 4205 4434  
Cooling Degree Days 12 4  
Month to date cooling degree days 12 4  
Year to date cooling degree days 159 90  
Since 1 June cooling degree days 12 4  
Growing Degree Days 26 (Base 50)    
Moisture  
Dew Point 64 °F    
Average Humidity 70    
Maximum Humidity 93    
Minimum Humidity 46    
Precipitation  
Precipitation 0.00 in 0.15 in 1.56 in (2015)
Month to date precipitation 0.00 0.15  
Year to date precipitation 16.63 16.62  
Sea Level Pressure  
Sea Level Pressure 30.00 in    
Wind  
Wind Speed 9 mph (SSW)    
Max Wind Speed 17 mph    
Max Gust Speed 26 mph    
Visibility 10 miles    
Events      
T = Trace of Precipitation, MM = Missing Value Source: NWS Daily Summary

Daily Weather History Graph

Daily Weather History Graph

Search for Another Location

Airport or City:

Trip Planner

Search our weather history database for the weather conditions in past years. The results will help you decide how hot, cold, wet, or windy it might be!

Date:

Astronomy

Jun. 01, 2013 Rise Set
Actual Time 5:52 AM EDT 8:31 PM EDT
Civil Twilight 5:21 AM EDT 9:02 PM EDT
Nautical Twilight 4:43 AM EDT 9:40 PM EDT
Astronomical Twilight 3:59 AM EDT 10:24 PM EDT
Moon 1:41 AM EDT (6/1) 2:04 PM EDT (6/1)
Length of Visible Light 15h 40m
Length of Day
14h 38m
Last Quarter, 41% of the Moon is Illuminated
Jun 1
Last Quarter
Jun 8
New
Jun 16
First Quarter
Jun 23
Full
Jun 30
Last Quarter

Hourly Weather History & Observations

Time (EDT) Temp. Heat Index Dew Point Humidity Pressure Visibility Wind Dir Wind Speed Gust Speed Precip Events Conditions
12:53 AM 71.1 °F - 62.1 °F 73% 30.05 in 10.0 mi SSW 8.1 mph - N/A   Clear
1:53 AM 69.1 °F - 62.1 °F 78% 30.04 in 10.0 mi Calm Calm - N/A   Clear
2:53 AM 69.1 °F - 62.1 °F 78% 30.04 in 10.0 mi SW 3.5 mph - N/A   Clear
3:53 AM 68.0 °F - 62.1 °F 81% 30.03 in 10.0 mi Calm Calm - N/A   Clear
4:53 AM 68.0 °F - 62.1 °F 81% 30.03 in 10.0 mi Variable 3.5 mph - N/A   Clear
5:53 AM 64.9 °F - 62.1 °F 90% 30.04 in 10.0 mi South 6.9 mph - N/A   Clear
6:53 AM 68.0 °F - 63.0 °F 84% 30.04 in 10.0 mi South 8.1 mph - N/A   Clear
7:53 AM 71.1 °F - 64.0 °F 78% 30.05 in 10.0 mi SW 11.5 mph - N/A   Clear
8:53 AM 75.0 °F - 64.0 °F 69% 30.05 in 10.0 mi South 8.1 mph - N/A   Clear
9:53 AM 79.0 °F - 64.9 °F 62% 30.04 in 10.0 mi SSW 11.5 mph - N/A   Clear
10:53 AM 82.0 °F 83.8 °F 64.9 °F 56% 30.04 in 10.0 mi South 8.1 mph - N/A   Clear
11:53 AM 84.0 °F 86.3 °F 66.0 °F 55% 30.02 in 10.0 mi South 10.4 mph - N/A   Clear
12:53 PM 86.0 °F 87.6 °F 64.9 °F 49% 30.00 in 10.0 mi SSW 10.4 mph - N/A   Clear
1:53 PM 88.0 °F 89.3 °F 64.0 °F 45% 29.99 in 10.0 mi South 9.2 mph - N/A   Partly Cloudy
2:53 PM 86.0 °F 87.3 °F 64.0 °F 48% 29.98 in 10.0 mi SSW 9.2 mph 21.9 mph N/A   Mostly Cloudy
3:53 PM 81.0 °F 82.7 °F 64.9 °F 58% 29.97 in 10.0 mi Calm Calm - N/A   Scattered Clouds
4:53 PM 86.0 °F 88.2 °F 66.0 °F 51% 29.95 in 10.0 mi Variable 3.5 mph - N/A   Partly Cloudy
5:53 PM 86.0 °F 88.2 °F 66.0 °F 51% 29.94 in 10.0 mi SSW 17.3 mph 23.0 mph N/A   Partly Cloudy
6:53 PM 84.9 °F 86.6 °F 64.9 °F 51% 29.94 in 10.0 mi SSW 10.4 mph - N/A   Clear
7:53 PM 82.9 °F 84.0 °F 63.0 °F 51% 29.94 in 10.0 mi SSW 17.3 mph 21.9 mph N/A   Clear
8:53 PM 81.0 °F 81.9 °F 62.1 °F 52% 29.94 in 10.0 mi SSW 15.0 mph 19.6 mph N/A   Clear
9:53 PM 79.0 °F - 61.0 °F 54% 29.95 in 10.0 mi SSW 10.4 mph - N/A   Clear
10:53 PM 77.0 °F - 62.1 °F 60% 29.94 in 10.0 mi SSW 12.7 mph - N/A   Clear
11:53 PM 75.0 °F - 62.1 °F 64% 29.94 in 10.0 mi South 12.7 mph - N/A   Clear